contact:dominique.lefevre@mio.osupytheas.fr, maurice.libes@osupytheas.fr, didier.mallarino@osupytheas.fr
Project:EMSO http://www.emso-fr.org/EMSO-France
Depth: 2436.0 m
Title:EMSO Ligure Ouest : Data MII capteur AQUADOPP
Date,Latitude,Longitude,X_East,Y_North,Z_Up,Amplitude_X,Amplitude_Y,Amplitude_Z,Batterie,SoundSpeed,Heading,Pitch,Roll,Pressure,TIS,Speed,Direction
, degrees North, degrees East, m.s-1, m.s-1,m.s-1, 1, 1, 1, Volt, m.s-1, degree, degree, degree, dbar, degree_C, m.s-1, degree
2024-05-06T00:04:03,42.805,6.029,0.028,-0.036,0.018,106.0,105.0,102.0,13.4,1505.2,5.3,-0.8,1.8,2471.527,13.28,0.045,142.1
2024-05-06T00:07:03,42.805,6.029,0.026,-0.016,0.002,105.0,106.0,103.0,13.4,1505.2,9.8,-0.8,1.8,2471.522,13.29,0.03,121.6
2024-05-06T00:10:03,42.805,6.029,0.023,-0.03,0.015,105.0,106.0,103.0,13.4,1505.2,1.1,-0.8,1.8,2471.535,13.29,0.037,142.5
2024-05-06T00:13:03,42.805,6.029,0.035,-0.041,0.011,106.0,106.0,103.0,13.4,1505.2,5.9,-0.7,1.8,2471.511,13.29,0.053,139.5
2024-05-06T00:16:03,42.805,6.029,0.03,-0.045,0.017,107.0,105.0,103.0,13.3,1505.2,9.8,-0.8,1.8,2471.515,13.29,0.054,146.3
2024-05-06T00:19:03,42.805,6.029,0.024,-0.02,0.013,105.0,107.0,102.0,13.3,1505.2,0.5,-0.8,1.8,2471.537,13.29,0.031,129.8
2024-05-06T00:22:03,42.805,6.029,0.029,-0.047,-0.014,104.0,108.0,102.0,13.4,1505.2,5.4,-0.8,1.8,2471.53,13.29,0.055,148.3
2024-05-06T00:25:03,42.805,6.029,0.035,-0.025,0.035,104.0,105.0,103.0,13.3,1505.2,1.0,-0.8,1.8,2471.528,13.29,0.043,125.5
2024-05-06T00:28:03,42.805,6.029,0.021,-0.028,0.014,106.0,106.0,103.0,13.4,1505.2,358.9,-0.7,1.8,2471.471,13.29,0.035,143.1
2024-05-06T00:31:03,42.805,6.029,0.037,-0.03,-0.01,106.0,105.0,103.0,13.4,1505.2,1.5,-0.8,1.8,2471.509,13.29,0.047,129.0
2024-05-06T00:34:03,42.805,6.029,0.023,-0.018,-0.007,105.0,107.0,103.0,13.4,1505.2,4.4,-0.7,1.8,2471.515,13.29,0.029,128.0
2024-05-06T00:37:03,42.805,6.029,0.02,-0.013,0.006,107.0,106.0,102.0,13.4,1505.2,3.0,-0.7,1.8,2471.525,13.29,0.023,123.0
2024-05-06T00:40:03,42.805,6.029,0.021,-0.027,0.002,105.0,105.0,103.0,13.4,1505.2,10.4,-0.8,1.8,2471.457,13.29,0.034,142.1
2024-05-06T00:43:03,42.805,6.029,0.022,-0.019,-0.002,105.0,105.0,104.0,13.3,1505.2,356.6,-0.7,1.8,2471.521,13.29,0.029,130.8
2024-05-06T00:46:03,42.805,6.029,0.015,-0.019,-0.002,106.0,105.0,103.0,13.4,1505.2,0.5,-0.7,1.8,2471.479,13.29,0.024,141.7
2024-05-06T00:49:03,42.805,6.029,0.019,-0.035,0.002,105.0,106.0,102.0,13.4,1505.2,7.1,-0.8,1.8,2471.485,13.29,0.039,151.5
2024-05-06T00:52:03,42.805,6.029,0.032,-0.012,0.022,106.0,106.0,101.0,13.4,1505.2,0.5,-0.8,1.8,2471.5,13.29,0.034,110.6
2024-05-06T00:55:03,42.805,6.029,0.01,-0.021,-0.009,105.0,105.0,102.0,13.4,1505.2,8.7,-0.8,1.8,2471.532,13.29,0.023,154.5
2024-05-06T00:58:03,42.805,6.029,0.047,-0.045,0.01,106.0,107.0,103.0,13.4,1505.2,2.4,-0.8,1.8,2471.484,13.29,0.065,133.8
2024-05-06T01:04:03,42.805,6.029,0.058,-0.021,-0.027,107.0,106.0,103.0,13.3,1505.2,358.9,-0.8,1.8,2471.554,13.28,0.061,109.9
2024-05-06T01:07:03,42.805,6.029,0.01,-0.025,-0.021,106.0,106.0,104.0,13.4,1505.2,2.0,-0.7,1.8,2471.523,13.29,0.026,158.2
2024-05-06T01:10:03,42.805,6.029,0.016,-0.03,0.007,105.0,107.0,103.0,13.3,1505.2,359.4,-0.8,1.8,2471.569,13.29,0.034,151.9
2024-05-06T01:13:03,42.805,6.029,0.036,-0.029,0.024,105.0,105.0,104.0,13.3,1505.2,0.0,-0.7,1.8,2471.502,13.29,0.046,128.9
2024-05-06T01:16:03,42.805,6.029,0.017,-0.022,-0.008,107.0,105.0,103.0,13.4,1505.2,9.2,-0.8,1.8,2471.552,13.29,0.027,142.3
2024-05-06T01:19:03,42.805,6.029,0.028,-0.037,0.001,106.0,105.0,102.0,13.3,1505.2,358.4,-0.8,1.8,2471.485,13.29,0.046,142.9
2024-05-06T01:22:03,42.805,6.029,0.05,-0.026,0.003,106.0,107.0,101.0,13.3,1505.2,359.4,-0.7,1.8,2471.549,13.29,0.056,117.5
2024-05-06T01:25:03,42.805,6.029,0.039,-0.021,0.041,105.0,105.0,103.0,13.4,1505.2,358.9,-0.7,1.8,2471.523,13.29,0.044,118.3
2024-05-06T01:28:03,42.805,6.029,0.028,-0.016,-0.01,107.0,105.0,104.0,13.4,1505.2,359.0,-0.8,1.8,2471.51,13.29,0.032,119.7
2024-05-06T01:31:03,42.805,6.029,0.033,-0.012,0.019,105.0,106.0,103.0,13.3,1505.2,354.0,-0.7,1.8,2471.539,13.29,0.035,110.0
2024-05-06T01:34:03,42.805,6.029,0.017,-0.019,0.031,105.0,106.0,103.0,13.4,1505.2,4.9,-0.7,1.8,2471.513,13.29,0.025,138.2
2024-05-06T01:37:03,42.805,6.029,0.029,-0.009,-0.016,106.0,107.0,102.0,13.3,1505.2,355.4,-0.8,1.8,2471.524,13.29,0.03,107.2
2024-05-06T01:40:03,42.805,6.029,0.028,0.004,0.042,106.0,106.0,103.0,13.4,1505.2,356.7,-0.7,1.8,2471.551,13.29,0.028,81.9
2024-05-06T01:43:03,42.805,6.029,0.03,-0.032,0.022,107.0,106.0,101.0,13.4,1505.2,0.5,-0.7,1.8,2471.569,13.29,0.043,136.9
2024-05-06T01:46:03,42.805,6.029,0.02,-0.013,0.013,106.0,106.0,103.0,13.4,1505.2,9.2,-0.8,1.8,2471.544,13.29,0.023,123.0
2024-05-06T01:49:03,42.805,6.029,0.02,-0.013,0.03,106.0,105.0,103.0,13.3,1505.2,354.7,-0.8,1.8,2471.512,13.29,0.023,123.0
2024-05-06T01:52:03,42.805,6.029,0.02,-0.022,0.037,106.0,106.0,103.0,13.3,1505.2,2.1,-0.8,1.8,2471.533,13.29,0.029,137.7
2024-05-06T01:55:03,42.805,6.029,0.037,-0.006,-0.018,106.0,106.0,104.0,13.4,1505.2,4.3,-0.8,1.8,2471.571,13.29,0.037,99.2
2024-05-06T01:58:03,42.805,6.029,0.026,-0.028,-0.002,106.0,107.0,103.0,13.4,1505.2,10.3,-0.7,1.8,2471.553,13.29,0.038,137.1
2024-05-06T02:04:03,42.805,6.029,0.024,-0.023,0.009,106.0,106.0,104.0,13.4,1505.2,5.9,-0.8,1.9,2471.57,13.28,0.033,133.8
2024-05-06T02:07:03,42.805,6.029,0.036,-0.02,0.005,105.0,105.0,103.0,13.4,1505.2,6.1,-0.8,1.8,2471.581,13.29,0.041,119.1
2024-05-06T02:10:03,42.805,6.029,0.027,-0.014,0.001,105.0,105.0,104.0,13.3,1505.2,354.2,-0.7,1.8,2471.567,13.29,0.03,117.4
2024-05-06T02:13:03,42.805,6.029,0.024,-0.003,0.004,107.0,105.0,103.0,13.4,1505.2,6.8,-0.8,1.8,2471.567,13.29,0.024,97.1
2024-05-06T02:16:03,42.805,6.029,0.04,-0.007,0.018,106.0,106.0,104.0,13.4,1505.2,359.4,-0.8,1.8,2471.624,13.29,0.04,99.9
2024-05-06T02:19:03,42.805,6.029,0.022,-0.015,0.013,106.0,106.0,103.0,13.4,1505.2,8.5,-0.8,1.8,2471.564,13.29,0.026,124.3
2024-05-06T02:22:03,42.805,6.029,0.011,-0.031,-0.002,106.0,107.0,103.0,13.4,1505.2,355.4,-0.8,1.8,2471.593,13.29,0.032,160.5
2024-05-06T02:25:03,42.805,6.029,0.027,-0.017,0.022,107.0,106.0,104.0,13.4,1505.2,0.5,-0.8,1.8,2471.61,13.29,0.031,122.2
2024-05-06T02:28:03,42.805,6.029,0.021,-0.003,0.014,106.0,106.0,103.0,13.4,1505.2,8.2,-0.8,1.8,2471.61,13.29,0.021,98.1
2024-05-06T02:31:03,42.805,6.029,0.037,-0.019,0.003,106.0,106.0,101.0,13.3,1505.2,8.2,-0.7,1.8,2471.596,13.29,0.041,117.2
2024-05-06T02:34:03,42.805,6.029,0.02,-0.05,0.009,106.0,106.0,103.0,13.3,1505.2,358.3,-0.8,1.8,2471.588,13.29,0.053,158.2
2024-05-06T02:37:03,42.805,6.029,0.041,-0.012,0.009,107.0,107.0,103.0,13.4,1505.2,355.0,-0.8,1.8,2471.593,13.29,0.042,106.3
2024-05-06T02:40:03,42.805,6.029,0.029,-0.025,0.024,107.0,107.0,103.0,13.4,1505.2,0.0,-0.8,1.8,2471.606,13.29,0.038,130.8
2024-05-06T02:43:03,42.805,6.029,0.035,-0.035,0.01,107.0,106.0,103.0,13.4,1505.2,9.6,-0.8,1.8,2471.583,13.29,0.049,135.0
2024-05-06T02:46:03,42.805,6.029,0.036,-0.013,0.007,106.0,106.0,103.0,13.3,1505.2,0.0,-0.8,1.8,2471.629,13.29,0.038,109.9
2024-05-06T02:49:03,42.805,6.029,0.031,-0.028,0.032,106.0,107.0,103.0,13.4,1505.2,6.5,-0.7,1.8,2471.62,13.29,0.041,132.1
2024-05-06T02:52:03,42.805,6.029,0.014,-0.022,0.011,105.0,107.0,103.0,13.4,1505.2,9.4,-0.7,1.8,2471.632,13.29,0.026,147.5
2024-05-06T02:55:03,42.805,6.029,0.031,-0.01,0.01,106.0,106.0,102.0,13.4,1505.2,355.3,-0.8,1.8,2471.623,13.29,0.032,107.9
2024-05-06T02:58:03,42.805,6.029,0.017,-0.004,0.015,105.0,106.0,104.0,13.4,1505.2,2.7,-0.7,1.8,2471.579,13.29,0.017,103.2
2024-05-06T03:04:03,42.805,6.029,0.043,-0.036,-0.009,106.0,105.0,102.0,13.4,1505.2,8.7,-0.8,1.8,2471.664,13.28,0.056,129.9
2024-05-06T03:07:03,42.805,6.029,0.034,-0.026,0.015,106.0,107.0,102.0,13.3,1505.2,2.4,-0.8,1.8,2471.636,13.29,0.042,127.4
2024-05-06T03:10:03,42.805,6.029,0.023,-0.013,0.021,106.0,107.0,102.0,13.4,1505.2,1.6,-0.7,1.8,2471.665,13.29,0.026,119.5
2024-05-06T03:13:03,42.805,6.029,0.017,-0.034,0.029,106.0,107.0,103.0,13.4,1505.2,9.3,-0.8,1.8,2471.606,13.29,0.038,153.4
2024-05-06T03:16:03,42.805,6.029,0.035,-0.017,0.009,106.0,108.0,104.0,13.4,1505.2,6.6,-0.8,1.8,2471.63,13.29,0.038,115.9
2024-05-06T03:19:03,42.805,6.029,0.026,-0.016,0.008,107.0,107.0,102.0,13.3,1505.2,357.0,-0.8,1.8,2471.677,13.29,0.03,121.6
2024-05-06T03:22:03,42.805,6.029,0.035,-0.026,0.017,107.0,106.0,103.0,13.3,1505.2,5.4,-0.8,1.8,2471.62,13.29,0.043,126.6
2024-05-06T03:25:03,42.805,6.029,0.042,-0.032,0.024,105.0,107.0,103.0,13.3,1505.2,4.9,-0.8,1.8,2471.635,13.29,0.052,127.3
2024-05-06T03:28:03,42.805,6.029,0.024,-0.019,0.019,105.0,107.0,103.0,13.3,1505.2,9.9,-0.8,1.8,2471.621,13.29,0.03,128.4
2024-05-06T03:31:03,42.805,6.029,0.042,-0.021,0.024,106.0,106.0,102.0,13.4,1505.2,354.8,-0.7,1.8,2471.663,13.29,0.046,116.6
2024-05-06T03:34:03,42.805,6.029,0.046,-0.035,-0.005,107.0,107.0,101.0,13.4,1505.2,4.3,-0.7,1.8,2471.678,13.29,0.057,127.3
2024-05-06T03:37:03,42.805,6.029,0.025,-0.008,0.008,107.0,107.0,103.0,13.4,1505.2,1.6,-0.8,1.8,2471.679,13.29,0.026,107.7
2024-05-06T03:40:03,42.805,6.029,0.018,-0.042,0.021,106.0,106.0,103.0,13.3,1505.2,10.2,-0.7,1.8,2471.639,13.29,0.045,156.8
2024-05-06T03:43:03,42.805,6.029,0.035,-0.02,0.021,107.0,108.0,103.0,13.4,1505.2,358.8,-0.8,1.8,2471.648,13.29,0.04,119.7
2024-05-06T03:46:03,42.805,6.029,0.026,-0.016,0.05,106.0,107.0,103.0,13.4,1505.2,3.6,-0.8,1.8,2471.658,13.29,0.03,121.6
2024-05-06T03:49:03,42.805,6.029,0.017,-0.036,0.007,105.0,105.0,104.0,13.3,1505.2,9.7,-0.7,1.8,2471.622,13.29,0.039,154.7
2024-05-06T03:52:03,42.805,6.029,0.019,-0.016,0.013,107.0,107.0,103.0,13.4,1505.2,354.7,-0.8,1.8,2471.673,13.29,0.024,130.1
2024-05-06T03:55:03,42.805,6.029,0.032,-0.015,0.006,106.0,106.0,104.0,13.4,1505.2,4.9,-0.8,1.8,2471.681,13.29,0.035,115.1
2024-05-06T03:58:03,42.805,6.029,0.025,-0.021,0.021,106.0,107.0,104.0,13.4,1505.2,6.6,-0.8,1.8,2471.664,13.29,0.032,130.0
2024-05-06T04:04:03,42.805,6.029,0.029,-0.028,-0.021,106.0,107.0,102.0,13.3,1505.2,354.5,-0.7,1.8,2471.7,13.28,0.04,134.0
2024-05-06T04:07:03,42.805,6.029,-0.002,-0.043,0.008,105.0,106.0,104.0,13.3,1505.2,6.5,-0.7,1.8,2471.682,13.29,0.043,182.7
2024-05-06T04:10:03,42.805,6.029,0.035,-0.01,0.0,106.0,107.0,103.0,13.4,1505.2,4.8,-0.8,1.8,2471.696,13.29,0.036,105.9
2024-05-06T04:13:03,42.805,6.029,0.033,-0.01,0.018,105.0,108.0,104.0,13.4,1505.2,359.5,-0.8,1.8,2471.717,13.29,0.034,106.9
2024-05-06T04:16:03,42.805,6.029,0.039,-0.015,0.049,106.0,107.0,102.0,13.3,1505.2,0.0,-0.8,1.8,2471.707,13.29,0.041,111.0
2024-05-06T04:19:03,42.805,6.029,0.016,-0.02,0.017,106.0,108.0,103.0,13.4,1505.2,5.9,-0.8,1.8,2471.687,13.29,0.025,141.3
2024-05-06T04:22:03,42.805,6.029,0.031,-0.025,0.019,106.0,108.0,102.0,13.4,1505.2,0.4,-0.8,1.8,2471.687,13.29,0.039,128.9
2024-05-06T04:25:03,42.805,6.029,0.032,-0.047,-0.011,105.0,107.0,103.0,13.3,1505.2,0.0,-0.8,1.8,2471.716,13.29,0.056,145.8
2024-05-06T04:28:03,42.805,6.029,0.036,-0.016,0.029,105.0,107.0,103.0,13.4,1505.2,358.4,-0.7,1.8,2471.692,13.29,0.039,114.0
2024-05-06T04:31:03,42.805,6.029,0.021,-0.01,0.002,105.0,106.0,102.0,13.4,1505.2,7.7,-0.8,1.8,2471.688,13.29,0.023,115.5
2024-05-06T04:34:03,42.805,6.029,0.024,-0.019,0.019,105.0,106.0,103.0,13.4,1505.2,355.2,-0.7,1.8,2471.692,13.29,0.03,128.4
2024-05-06T04:37:03,42.805,6.029,0.031,-0.041,0.025,105.0,105.0,103.0,13.4,1505.2,358.9,-0.8,1.8,2471.698,13.29,0.051,142.9
2024-05-06T04:40:03,42.805,6.029,0.019,-0.027,0.021,106.0,107.0,104.0,13.4,1505.2,0.0,-0.7,1.8,2471.7,13.29,0.033,144.9
2024-05-06T04:43:03,42.805,6.029,0.007,-0.024,0.018,105.0,107.0,103.0,13.3,1505.2,4.9,-0.8,1.8,2471.708,13.29,0.025,163.7
2024-05-06T04:46:03,42.805,6.029,0.019,-0.033,0.027,106.0,107.0,103.0,13.3,1505.2,6.8,-0.7,1.8,2471.728,13.29,0.038,150.1
2024-05-06T04:49:03,42.805,6.029,0.027,-0.033,0.005,106.0,107.0,103.0,13.3,1505.2,9.3,-0.8,1.8,2471.725,13.29,0.042,140.7
2024-05-06T04:52:03,42.805,6.029,0.018,-0.017,0.026,106.0,105.0,103.0,13.4,1505.2,3.3,-0.8,1.8,2471.708,13.29,0.024,133.4
2024-05-06T04:55:03,42.805,6.029,0.013,-0.032,0.037,106.0,107.0,102.0,13.4,1505.2,6.3,-0.7,1.8,2471.697,13.29,0.034,157.9
2024-05-06T04:58:03,42.805,6.029,0.043,-0.036,0.0,106.0,107.0,103.0,13.3,1505.2,359.4,-0.7,1.8,2471.713,13.29,0.056,129.9
2024-05-06T05:04:03,42.805,6.029,0.05,-0.024,-0.003,107.0,107.0,103.0,13.4,1505.2,356.1,-0.8,1.8,2471.78,13.28,0.055,115.6
2024-05-06T05:07:03,42.805,6.029,0.013,-0.032,-0.009,107.0,105.0,104.0,13.4,1505.2,5.9,-0.8,1.8,2471.769,13.29,0.034,157.9
2024-05-06T05:10:03,42.805,6.029,0.033,-0.036,0.024,107.0,106.0,103.0,13.4,1505.2,9.2,-0.8,1.8,2471.738,13.29,0.048,137.5
2024-05-06T05:13:03,42.805,6.029,0.034,-0.023,-0.017,105.0,105.0,105.0,13.4,1505.2,354.6,-0.8,1.8,2471.733,13.29,0.041,124.1
2024-05-06T05:16:03,42.805,6.029,0.025,-0.041,0.018,105.0,105.0,103.0,13.4,1505.2,3.8,-0.7,1.8,2471.719,13.29,0.048,148.6
2024-05-06T05:19:03,42.805,6.029,0.032,-0.024,0.021,105.0,105.0,104.0,13.4,1505.2,357.2,-0.7,1.8,2471.747,13.29,0.04,126.9
2024-05-06T05:22:03,42.805,6.029,0.04,-0.049,0.017,106.0,108.0,103.0,13.4,1505.2,358.9,-0.7,1.8,2471.712,13.29,0.063,140.8
2024-05-06T05:25:03,42.805,6.029,0.032,-0.012,0.0,106.0,107.0,103.0,13.4,1505.2,7.5,-0.8,1.8,2471.767,13.29,0.034,110.6
2024-05-06T05:28:03,42.805,6.029,0.036,-0.035,0.002,106.0,107.0,103.0,13.4,1505.2,3.3,-0.8,1.8,2471.755,13.29,0.05,134.2
2024-05-06T05:31:03,42.805,6.029,0.01,-0.017,-0.001,106.0,107.0,102.0,13.3,1505.2,1.6,-0.8,1.8,2471.755,13.29,0.019,149.5
2024-05-06T05:34:03,42.805,6.029,0.023,-0.029,0.01,106.0,107.0,103.0,13.4,1505.2,7.1,-0.8,1.9,2471.757,13.29,0.037,141.6
2024-05-06T05:37:03,42.805,6.029,0.042,-0.018,-0.003,106.0,106.0,103.0,13.4,1505.2,359.5,-0.7,1.8,2471.712,13.29,0.045,113.2
2024-05-06T05:40:03,42.805,6.029,0.029,-0.045,0.013,106.0,108.0,103.0,13.3,1505.2,6.8,-0.8,1.8,2471.706,13.29,0.053,147.2
2024-05-06T05:43:03,42.805,6.029,0.025,-0.032,-0.001,107.0,106.0,103.0,13.3,1505.2,1.1,-0.7,1.8,2471.725,13.29,0.04,142.0
2024-05-06T05:46:03,42.805,6.029,0.015,-0.042,0.018,105.0,107.0,104.0,13.4,1505.2,5.9,-0.8,1.8,2471.742,13.29,0.044,160.4
2024-05-06T05:49:03,42.805,6.029,0.02,-0.055,-0.003,104.0,106.0,103.0,13.4,1505.2,4.8,-0.7,1.8,2471.726,13.29,0.058,160.0
2024-05-06T05:52:03,42.805,6.029,0.017,-0.028,0.002,107.0,106.0,102.0,13.4,1505.2,6.1,-0.8,1.8,2471.718,13.29,0.032,148.7
2024-05-06T05:55:03,42.805,6.029,0.032,-0.041,0.02,107.0,106.0,102.0,13.4,1505.2,5.9,-0.8,1.8,2471.725,13.29,0.052,142.0
2024-05-06T05:58:03,42.805,6.029,0.035,-0.045,0.03,105.0,106.0,103.0,13.4,1505.2,3.9,-0.8,1.8,2471.714,13.29,0.057,142.1
2024-05-06T06:04:03,42.805,6.029,0.018,-0.027,0.03,106.0,106.0,103.0,13.3,1505.2,9.1,-0.8,1.8,2471.792,13.28,0.032,146.3
2024-05-06T06:07:03,42.805,6.029,0.03,-0.002,0.004,106.0,105.0,103.0,13.4,1505.2,357.9,-0.8,1.8,2471.754,13.29,0.03,93.8
2024-05-06T06:10:03,42.805,6.029,0.037,-0.025,-0.009,105.0,107.0,103.0,13.4,1505.2,355.8,-0.7,1.8,2471.765,13.29,0.044,124.0
2024-05-06T06:13:03,42.805,6.029,0.014,-0.039,-0.019,106.0,106.0,103.0,13.4,1505.2,6.7,-0.8,1.8,2471.728,13.29,0.041,160.3
2024-05-06T06:16:03,42.805,6.029,0.015,-0.022,0.023,106.0,106.0,103.0,13.3,1505.2,9.6,-0.7,1.8,2471.73,13.29,0.026,145.7
2024-05-06T06:19:03,42.805,6.029,0.016,-0.021,0.002,106.0,106.0,102.0,13.4,1505.2,356.2,-0.8,1.9,2471.726,13.29,0.026,142.7
2024-05-06T06:22:03,42.805,6.029,0.029,-0.009,0.038,106.0,107.0,102.0,13.4,1505.2,5.2,-0.8,1.8,2471.723,13.29,0.03,107.2
2024-05-06T06:25:03,42.805,6.029,0.022,-0.027,-0.022,105.0,106.0,103.0,13.3,1505.2,358.9,-0.7,1.8,2471.732,13.29,0.034,140.8
2024-05-06T06:28:03,42.805,6.029,0.014,-0.007,0.026,106.0,107.0,104.0,13.4,1505.2,7.4,-0.7,1.8,2471.715,13.29,0.015,116.6
2024-05-06T06:31:03,42.805,6.029,0.032,-0.016,0.014,105.0,106.0,103.0,13.3,1505.2,4.4,-0.8,1.8,2471.698,13.29,0.035,116.6
2024-05-06T06:34:03,42.805,6.029,0.019,-0.044,0.02,106.0,107.0,103.0,13.3,1505.2,359.4,-0.8,1.8,2471.715,13.29,0.047,156.6
2024-05-06T06:37:03,42.805,6.029,0.021,-0.024,0.029,106.0,106.0,103.0,13.3,1505.2,358.9,-0.7,1.8,2471.72,13.29,0.031,138.8
2024-05-06T06:40:03,42.805,6.029,0.019,-0.024,0.029,105.0,107.0,103.0,13.3,1505.2,10.3,-0.8,1.8,2471.701,13.29,0.03,141.6
2024-05-06T06:43:03,42.805,6.029,0.025,-0.022,0.007,106.0,109.0,104.0,13.4,1505.2,3.4,-0.8,1.8,2471.688,13.29,0.033,131.3
2024-05-06T06:46:03,42.805,6.029,0.019,-0.04,-0.011,107.0,106.0,102.0,13.4,1505.2,5.9,-0.8,1.8,2471.712,13.29,0.044,154.6
2024-05-06T06:49:03,42.805,6.029,0.014,-0.04,0.028,105.0,105.0,102.0,13.3,1505.2,8.9,-0.7,1.8,2471.709,13.29,0.042,160.7
2024-05-06T06:52:03,42.805,6.029,0.052,-0.041,0.048,105.0,106.0,103.0,13.4,1505.2,2.9,-0.8,1.8,2471.692,13.29,0.066,128.3
2024-05-06T06:55:03,42.805,6.029,0.023,-0.009,-0.01,106.0,105.0,103.0,13.3,1505.2,6.3,-0.8,1.8,2471.719,13.29,0.024,111.4
2024-05-06T06:58:03,42.805,6.029,0.04,-0.034,0.007,106.0,107.0,103.0,13.4,1505.2,0.5,-0.8,1.8,2471.702,13.29,0.052,130.4
2024-05-06T07:04:03,42.805,6.029,0.018,-0.027,-0.003,106.0,105.0,102.0,13.4,1505.2,5.6,-0.7,1.8,2471.734,13.28,0.032,146.3
2024-05-06T07:07:03,42.805,6.029,0.037,-0.052,0.006,106.0,106.0,103.0,13.3,1505.2,0.0,-0.8,1.8,2471.746,13.29,0.063,144.6
2024-05-06T07:10:03,42.805,6.029,0.022,-0.04,0.004,105.0,107.0,103.0,13.3,1505.2,8.8,-0.8,1.8,2471.729,13.29,0.045,151.2
2024-05-06T07:13:03,42.805,6.029,0.028,-0.038,0.01,106.0,106.0,103.0,13.4,1505.2,4.3,-0.7,1.8,2471.705,13.29,0.047,143.6
2024-05-06T07:16:03,42.805,6.029,0.04,-0.027,0.029,106.0,105.0,102.0,13.3,1505.2,355.9,-0.8,1.9,2471.733,13.29,0.048,124.0
2024-05-06T07:19:03,42.805,6.029,0.028,-0.033,0.003,106.0,106.0,104.0,13.3,1505.2,2.7,-0.7,1.8,2471.709,13.29,0.043,139.7
2024-05-06T07:22:03,42.805,6.029,0.024,-0.026,0.014,105.0,106.0,103.0,13.4,1505.2,6.5,-0.8,1.8,2471.702,13.29,0.035,137.3
2024-05-06T07:25:03,42.805,6.029,0.032,-0.039,0.056,105.0,106.0,103.0,13.4,1505.2,1.5,-0.7,1.8,2471.689,13.29,0.05,140.6
2024-05-06T07:28:03,42.805,6.029,0.016,-0.038,-0.006,106.0,106.0,103.0,13.4,1505.2,3.7,-0.8,1.8,2471.728,13.29,0.041,157.2
2024-05-06T07:31:03,42.805,6.029,0.019,-0.022,0.007,106.0,105.0,103.0,13.4,1505.2,6.6,-0.8,1.8,2471.699,13.29,0.029,139.2
2024-05-06T07:34:03,42.805,6.029,0.015,-0.049,0.022,106.0,106.0,103.0,13.4,1505.2,0.0,-0.7,1.8,2471.707,13.29,0.051,163.0
2024-05-06T07:37:03,42.805,6.029,0.032,-0.025,-0.012,106.0,105.0,102.0,13.4,1505.2,359.5,-0.7,1.8,2471.652,13.29,0.04,128.0
2024-05-06T07:40:03,42.805,6.029,0.011,-0.049,0.006,105.0,106.0,103.0,13.4,1505.2,6.6,-0.8,1.8,2471.699,13.29,0.05,167.3
2024-05-06T07:43:03,42.805,6.029,0.04,-0.016,0.009,107.0,104.0,102.0,13.4,1505.2,353.7,-0.7,1.8,2471.7,13.29,0.043,111.8
2024-05-06T07:46:03,42.805,6.029,0.03,-0.012,0.014,107.0,106.0,103.0,13.3,1505.2,4.6,-0.8,1.8,2471.7,13.29,0.032,111.8
2024-05-06T07:49:03,42.805,6.029,0.002,-0.018,0.013,106.0,105.0,102.0,13.4,1505.2,10.3,-0.8,1.8,2471.653,13.29,0.018,173.7
2024-05-06T07:52:03,42.805,6.029,0.024,-0.029,0.022,106.0,107.0,102.0,13.4,1505.2,359.5,-0.7,1.8,2471.67,13.29,0.037,140.4
2024-05-06T07:55:03,42.805,6.029,0.026,-0.024,0.014,105.0,104.0,103.0,13.4,1505.2,353.7,-0.8,1.8,2471.636,13.29,0.035,132.7
2024-05-06T07:58:03,42.805,6.029,0.014,-0.046,0.013,105.0,105.0,102.0,13.3,1505.2,7.0,-0.7,1.8,2471.669,13.29,0.048,163.1
2024-05-06T08:04:03,42.805,6.029,0.033,-0.035,0.008,105.0,106.0,103.0,13.3,1505.2,356.4,-0.7,1.8,2471.684,13.28,0.048,136.7
2024-05-06T08:07:03,42.805,6.029,0.007,-0.023,0.039,107.0,103.0,103.0,13.4,1505.2,356.6,-0.8,1.8,2471.648,13.29,0.024,163.1
2024-05-06T08:10:03,42.805,6.029,0.043,-0.036,-0.002,107.0,106.0,103.0,13.4,1505.2,4.9,-0.7,1.9,2471.671,13.29,0.056,129.9
2024-05-06T08:13:03,42.805,6.029,0.008,-0.034,0.002,105.0,106.0,102.0,13.4,1505.2,10.0,-0.8,1.8,2471.657,13.29,0.034,166.8
2024-05-06T08:16:03,42.805,6.029,0.01,-0.022,0.005,105.0,105.0,103.0,13.3,1505.2,8.6,-0.8,1.8,2471.697,13.29,0.024,155.6
2024-05-06T08:19:03,42.805,6.029,0.01,-0.018,0.025,106.0,106.0,102.0,13.3,1505.2,357.4,-0.8,1.8,2471.659,13.29,0.02,150.9
2024-05-06T08:22:03,42.805,6.029,0.038,-0.045,0.009,105.0,106.0,103.0,13.4,1505.2,359.4,-0.8,1.8,2471.683,13.29,0.058,139.8
2024-05-06T08:25:03,42.805,6.029,0.018,-0.042,0.011,106.0,105.0,102.0,13.4,1505.2,0.0,-0.8,1.8,2471.652,13.29,0.045,156.8
2024-05-06T08:28:03,42.805,6.029,0.032,-0.024,0.0,105.0,105.0,103.0,13.3,1505.2,5.9,-0.8,1.8,2471.653,13.29,0.04,126.9
2024-05-06T08:31:03,42.805,6.029,0.002,-0.035,-0.014,106.0,106.0,102.0,13.4,1505.2,359.0,-0.8,1.8,2471.656,13.29,0.035,176.7
2024-05-06T08:34:03,42.805,6.029,0.03,-0.017,0.013,106.0,105.0,101.0,13.3,1505.2,358.3,-0.8,1.8,2471.666,13.29,0.034,119.5
2024-05-06T08:37:03,42.805,6.029,0.025,-0.028,0.019,106.0,106.0,103.0,13.4,1505.2,358.3,-0.7,1.8,2471.639,13.29,0.037,138.2
2024-05-06T08:40:03,42.805,6.029,0.005,-0.027,-0.025,106.0,105.0,103.0,13.3,1505.2,358.3,-0.8,1.8,2471.629,13.29,0.027,169.5
2024-05-06T08:43:03,42.805,6.029,0.028,-0.044,-0.014,106.0,105.0,102.0,13.4,1505.2,5.9,-0.8,1.8,2471.632,13.29,0.052,147.5
2024-05-06T08:46:03,42.805,6.029,0.036,-0.043,0.024,105.0,106.0,102.0,13.4,1505.2,356.1,-0.7,1.8,2471.646,13.29,0.056,140.1
2024-05-06T08:49:03,42.805,6.029,0.022,-0.045,0.017,106.0,105.0,103.0,13.3,1505.2,2.2,-0.7,1.9,2471.639,13.29,0.05,153.9
2024-05-06T08:52:03,42.805,6.029,0.032,-0.051,-0.007,105.0,105.0,103.0,13.4,1505.2,3.0,-0.8,1.8,2471.631,13.29,0.06,147.9
2024-05-06T08:55:03,42.805,6.029,0.031,-0.023,0.001,105.0,105.0,103.0,13.4,1505.2,358.8,-0.8,1.8,2471.612,13.29,0.038,126.6
2024-05-06T08:58:03,42.805,6.029,0.024,-0.024,0.032,105.0,105.0,102.0,13.4,1505.2,0.9,-0.7,1.8,2471.594,13.29,0.033,135.0
2024-05-06T09:04:03,42.805,6.029,0.025,-0.043,0.012,105.0,107.0,103.0,13.4,1505.2,8.8,-0.8,1.8,2471.599,13.28,0.049,149.8
2024-05-06T09:07:03,42.805,6.029,0.01,-0.032,0.0,106.0,106.0,102.0,13.3,1505.2,10.4,-0.7,1.8,2471.677,13.29,0.033,162.6
2024-05-06T09:10:03,42.805,6.029,0.02,-0.032,0.019,106.0,106.0,103.0,13.4,1505.2,2.9,-0.7,1.8,2471.677,13.29,0.037,148.0
2024-05-06T09:13:03,42.805,6.029,0.033,-0.037,0.02,106.0,106.0,103.0,13.4,1505.2,354.0,-0.8,1.8,2471.611,13.29,0.049,138.3
2024-05-06T09:16:03,42.805,6.029,0.029,-0.045,0.003,106.0,105.0,104.0,13.3,1505.2,358.9,-0.8,1.8,2471.581,13.29,0.053,147.2
2024-05-06T09:19:03,42.805,6.029,0.017,-0.046,0.0,106.0,106.0,103.0,13.4,1505.2,9.9,-0.7,1.8,2471.581,13.29,0.049,159.7
2024-05-06T09:22:03,42.805,6.029,0.021,-0.001,0.024,106.0,106.0,103.0,13.4,1505.2,6.2,-0.7,1.8,2471.607,13.29,0.021,92.7
2024-05-06T09:25:03,42.805,6.029,0.005,-0.033,0.0,106.0,106.0,103.0,13.4,1505.2,358.5,-0.8,1.8,2471.6,13.29,0.033,171.4
2024-05-06T09:28:03,42.805,6.029,0.026,-0.021,-0.003,106.0,106.0,103.0,13.3,1505.2,2.5,-0.8,1.8,2471.598,13.29,0.033,128.9
2024-05-06T09:31:03,42.805,6.029,0.037,-0.046,0.02,106.0,107.0,102.0,13.4,1505.2,4.8,-0.7,1.8,2471.581,13.29,0.059,141.2
2024-05-06T09:34:03,42.805,6.029,0.05,-0.013,0.024,106.0,105.0,103.0,13.3,1505.2,357.9,-0.8,1.8,2471.573,13.29,0.051,104.6
2024-05-06T09:37:03,42.805,6.029,0.033,-0.025,0.035,107.0,106.0,102.0,13.4,1505.2,354.7,-0.8,1.8,2471.6,13.29,0.041,127.1
2024-05-06T09:40:03,42.805,6.029,0.019,-0.022,-0.001,106.0,106.0,103.0,13.4,1505.2,353.1,-0.8,1.8,2471.601,13.29,0.029,139.2
2024-05-06T09:43:03,42.805,6.029,0.019,-0.023,0.012,106.0,106.0,103.0,13.4,1505.2,358.4,-0.7,1.8,2471.559,13.29,0.029,140.4
2024-05-06T09:46:03,42.805,6.029,0.032,-0.034,0.003,107.0,106.0,103.0,13.4,1505.2,8.2,-0.8,1.8,2471.537,13.29,0.046,136.7
2024-05-06T09:49:03,42.805,6.029,0.019,-0.034,0.024,105.0,107.0,103.0,13.4,1505.2,0.5,-0.7,1.8,2471.533,13.29,0.038,150.8
2024-05-06T09:52:03,42.805,6.029,0.019,-0.045,0.045,106.0,105.0,103.0,13.3,1505.2,9.0,-0.7,1.8,2471.531,13.29,0.048,157.1
2024-05-06T09:55:03,42.805,6.029,0.034,-0.02,-0.009,108.0,105.0,103.0,13.4,1505.2,357.5,-0.7,1.8,2471.532,13.29,0.039,120.5
2024-05-06T09:58:03,42.805,6.029,0.036,-0.021,0.006,106.0,107.0,103.0,13.4,1505.2,6.5,-0.7,1.8,2471.539,13.29,0.041,120.3
2024-05-06T10:04:03,42.805,6.029,0.035,-0.032,0.02,107.0,105.0,103.0,13.3,1505.2,9.5,-0.8,1.8,2471.563,13.28,0.047,132.4
2024-05-06T10:07:03,42.805,6.029,0.033,-0.035,0.023,107.0,107.0,102.0,13.4,1505.2,355.5,-0.7,1.8,2471.566,13.29,0.048,136.7